[[{"header":{"parameterUnit":"m.s-1","parameterCategory":1,"la1":30.2992,"la2":30.254,"lo1":-89.0895,"lo2":-89.0443,"dy":0.0025,"dx":0.0025,"nx":19,"ny":19,"refTime":"2026-04-20T21:00:00:Z","depth":0,"parameterNumber":2,"parameterNumberName":"U-component_of_WINDS"},"data":[0,0,0,-3.3361,-3.3363,-3.3464,-3.3465,-3.3607,-3.3609,0,0,0,0,0,0,0,0,0,0,0,-3.334,-3.3342,-3.3361,-3.3363,-3.3464,-3.3465,-3.3607,-3.3609,0,0,0,0,0,0,0,0,0,0,0,-3.334,-3.3341,-3.3343,-3.3364,-3.3464,-3.3465,-3.3607,-3.3525,0,0,0,0,0,0,0,0,0,0,-3.3425,-3.3415,-3.3341,-3.3343,-3.3365,-3.3464,-3.3465,-3.3521,-3.3531,-3.3568,0,-3.3604,0,-3.3609,-3.3619,-3.362,0,0,0,-3.3356,-3.3408,-3.3427,-3.3343,-3.3366,-3.3464,-3.3417,-3.3526,-3.3537,-3.358,-3.3606,-3.3611,-3.3611,-3.362,-3.3621,-3.3859,-3.386,0,0,-3.3351,-3.3363,-3.3419,-3.3434,-3.342,-3.3414,-3.342,-3.3532,-3.3561,-3.3606,-3.3614,-3.3613,-3.3621,-3.3622,-3.3858,-3.3859,0,0,0,-3.334,-3.336,-3.3375,-3.3428,-3.3446,-3.3417,-3.3424,-3.3556,-3.356,-3.3615,-3.3615,-3.3622,-3.3624,-3.3856,-3.3858,-3.394,0,0,0,-3.3336,-3.3353,-3.3373,-3.3382,-3.3444,-3.3502,-3.3446,-3.3552,-3.3565,-3.3614,-3.3622,-3.3626,-3.3854,-3.3857,-3.3935,-3.3977,0,0,0,-3.3331,-3.3352,-3.337,-3.3383,-3.3426,-3.35,-3.3511,-3.3555,-3.3565,-3.362,-3.3626,-3.3853,-3.3857,-3.393,-3.3969,-3.4042,0,0,0,-3.3328,-3.3443,-3.3372,-3.35,-3.3426,-3.3551,-3.351,-3.3602,-3.3659,-3.3623,-3.3855,-3.3858,-3.3928,-3.3964,-3.4037,-3.4105,-3.4135,0,0,-3.348,-3.3462,-3.3536,-3.3475,-3.3616,-3.3535,-3.3687,-3.3728,-3.3722,-3.3813,-3.3819,-3.3937,-3.3968,-3.4041,-3.4301,-3.4325,0,0,0,-3.3588,-3.3642,-3.3676,-3.3731,-3.3764,-3.3796,-3.3811,-3.3826,-3.3903,-3.3772,-3.3983,-3.4002,-3.4044,-3.4076,-3.4096,-3.413,-3.3874,-3.3873,-3.3873,-3.3821,-3.3806,-3.3927,-3.3924,-3.3978,-3.3992,-3.4033,-3.4055,-3.4026,-3.4076,-3.4102,-3.4262,-3.43,-3.4316,-3.4352,-3.4139,-3.4139,-3.4139,-3.4139,-3.404,-3.4113,-3.4069,-3.4171,-3.4155,-3.424,-3.4257,-3.4233,-3.4309,-3.4241,-3.4278,-3.4204,-3.4342,-3.4373,-3.4145,-3.4144,-3.4144,-3.4143,-3.4143,-3.419,-3.4222,-3.4237,-3.4313,-3.4373,-3.4366,-3.4441,-3.4423,-3.4408,-3.4444,-3.4469,-3.4467,-3.4462,-3.4457,-3.4458,-3.4458,-3.4459,-3.4459,-3.4459,-3.4339,-3.4353,-3.4418,-3.4462,-3.4494,-3.4533,-3.4547,-3.4578,-3.4607,-3.4588,-3.4588,-3.4552,-3.4359,-3.431,-3.4468,-3.4466,-3.4465,-3.4464,-3.4464,-3.4565,-3.451,-3.4611,-3.4642,-3.4691,-3.475,-3.4727,-3.479,-3.4813,-3.485,-3.4806,-3.4667,-3.4647,-3.463,-3.4589,-3.481,-3.481,-3.481,-3.481,-3.469,-3.4678,-3.4775,-3.4827,-3.4875,-3.4863,-3.4975,-3.4987,-3.4991,-3.5003,-3.4969,-3.4914,-3.4898,-3.4887,-3.4865,-3.4827,-3.5103,-3.5103,-3.5103,-3.4828,-3.4819,-3.4918,-3.4921,-3.4957,-3.4988,-3.5092,-3.5152,-3.5145,-3.5115,-3.5012,-3.5,-3.491,-3.4882,-3.485,-3.4816,-3.4745,0,0]},{"header":{"parameterUnit":"m.s-1","parameterCategory":1,"la1":30.2992,"la2":30.254,"lo1":-89.0895,"lo2":-89.0443,"dy":0.0025,"dx":0.0025,"nx":19,"ny":19,"refTime":"2026-04-20T21:00:00:Z","depth":0,"parameterNumber":3,"parameterNumberName":"V-component_of_WINDS"},"data":[0,0,0,1.8006,1.8006,1.7994,1.7993,1.7991,1.7991,0,0,0,0,0,0,0,0,0,0,0,1.8017,1.8018,1.8006,1.8006,1.7994,1.7993,1.7991,1.7991,0,0,0,0,0,0,0,0,0,0,0,1.8017,1.8018,1.8018,1.8006,1.7994,1.7993,1.7991,1.7995,0,0,0,0,0,0,0,0,0,0,1.8005,1.8023,1.8018,1.8018,1.8006,1.7994,1.7993,1.7995,1.7995,1.8002,0,1.801,0,1.8001,1.7992,1.7992,0,0,0,1.8,1.8024,1.8013,1.8018,1.8006,1.7994,1.7997,1.7995,1.7995,1.8002,1.801,1.801,1.8001,1.7992,1.7992,1.8051,1.8052,0,0,1.8001,1.8019,1.8014,1.8014,1.8016,1.7998,1.7997,1.7995,1.8005,1.801,1.8009,1.8001,1.7992,1.7992,1.8051,1.8051,0,0,0,1.8007,1.802,1.8009,1.8014,1.8011,1.7998,1.7997,1.8005,1.8,1.8009,1.8001,1.7992,1.7992,1.805,1.8051,1.8095,0,0,0,1.8007,1.8024,1.801,1.8022,1.8011,1.8008,1.8008,1.8,1.7999,1.8001,1.7992,1.7992,1.8049,1.805,1.8093,1.8113,0,0,0,1.8016,1.8024,1.8025,1.8023,1.8018,1.8007,1.8002,1.8,1.7994,1.7992,1.7992,1.8049,1.805,1.809,1.8109,1.8132,0,0,0,1.803,1.8066,1.8027,1.8063,1.8018,1.8036,1.8002,1.8014,1.8017,1.7992,1.8049,1.8051,1.809,1.8106,1.813,1.8155,1.8167,0,0,1.8085,1.8073,1.8093,1.8057,1.8086,1.8036,1.8072,1.8057,1.804,1.8048,1.8049,1.8094,1.8108,1.8132,1.8234,1.8244,0,0,0,1.8116,1.813,1.8134,1.8138,1.8128,1.812,1.8099,1.8093,1.81,1.8048,1.8109,1.8117,1.813,1.8141,1.8149,1.8159,1.8057,1.8057,1.8057,1.8219,1.8195,1.8226,1.8202,1.8206,1.8183,1.8185,1.8173,1.8149,1.8164,1.8165,1.823,1.8243,1.8249,1.8259,1.8178,1.8178,1.8178,1.8178,1.8295,1.8311,1.8278,1.8296,1.8271,1.8286,1.8266,1.8248,1.8258,1.8226,1.8237,1.8202,1.8261,1.8268,1.8182,1.8181,1.8181,1.818,1.818,1.8358,1.8361,1.8355,1.8358,1.8364,1.8338,1.8349,1.8327,1.8306,1.8316,1.8315,1.8314,1.8309,1.8318,1.8318,1.8318,1.8318,1.8319,1.8319,1.8425,1.8416,1.8428,1.8421,1.8421,1.8418,1.8397,1.8396,1.8389,1.8371,1.8371,1.8344,1.8272,1.8253,1.8322,1.8321,1.8321,1.8321,1.832,1.8507,1.8485,1.8503,1.8503,1.8493,1.85,1.8472,1.8473,1.8469,1.8475,1.8447,1.8398,1.8383,1.8376,1.836,1.8452,1.8452,1.8452,1.8453,1.8558,1.8549,1.8563,1.8564,1.8563,1.854,1.8561,1.8546,1.8527,1.8523,1.8507,1.8485,1.8479,1.8467,1.8459,1.8443,1.8555,1.8555,1.8555,1.8607,1.8597,1.8619,1.86,1.8591,1.8584,1.8603,1.8606,1.8579,1.8559,1.8519,1.8515,1.8478,1.8468,1.8444,1.8431,1.8402,0,0]}]]